#timestamp,LO_Frequency,Hit,StdDev 
1522414815.7,286047004.4,N
1522414835.5,286047003.5,N
1522414855.4,286047003.9,N
1522414875.2,286047004.2,N
1522414895.0,286047001.4,N
1522414895.9,286047001.4,N
1522414915.8,286047004.4,Y
1522414935.6,286046999.4,P
1522414955.5,286046999.3,N
1522414975.3,286046999.0,N
1522414995.1,286047001.0,N
1522415015.9,286047000.9,N
1522415035.7,286046998.2,N
1522415055.6,286046998.2,N
1522415075.4,286046999.0,N
1522415095.2,286046998.6,N
1522415115.1,286046998.8,N
1522415116.0,286046998.8,N
1522415135.8,286047001.2,N
1522415155.6,286047000.0,N
1522415175.5,286047000.4,N
1522415195.3,286047002.3,N
1522415215.2,286047002.4,N
1522415235.9,286047001.4,N
1522415255.7,286047001.5,N
1522415275.6,286047001.9,N
1522415295.4,286047001.8,N
1522415315.2,286047002.8,N
1522415335.1,286047002.4,N
1522415336.0,286047002.4,N
1522415355.8,286047002.3,N
1522415375.7,286047002.5,N
1522415395.5,286047002.8,N
1522415415.3,286047002.1,N
1522415435.2,286047002.5,N
1522415455.0,286047000.1,N
1522415455.9,286047000.1,N
1522415475.8,286047000.1,N
1522415495.6,286047000.0,N
1522415515.4,286047002.6,N
1522415535.3,286047002.7,N
1522415555.1,286047002.4,N
1522415575.9,286047002.6,N
1522415595.7,286047004.4,N
1522415615.5,286047001.5,N
1522415635.4,286047004.4,Y
1522415655.2,286047002.3,P
1522415675.0,286047002.8,P
1522415676.0,286047002.8,P
1522415695.8,286047002.8,Y
1522415715.6,286046998.3,P
1522415735.5,286046999.0,N
1522415755.3,286047000.0,N
1522415775.1,286046998.3,N
1522415795.9,286047000.2,N
1522415815.7,286046999.9,N
1522415835.6,286047001.9,N
1522415855.4,286046999.7,N
1522415875.2,286047002.8,N
1522415895.1,286047000.5,N
1522415896.0,286047000.5,N
1522415915.8,286047000.4,N
1522415935.6,286046998.2,N
1522415955.5,286046998.2,N
1522415975.3,286046999.4,N
1522415995.2,286046998.8,N
1522416015.9,286046998.9,N
1522416035.7,286046998.4,N
1522416055.6,286046998.2,N
1522416075.4,286047001.0,N
1522416095.2,286047000.9,N
1522416115.1,286047000.3,N
1522416116.0,286047000.3,N
1522416135.8,286047000.7,N
1522416155.7,286047000.6,N
1522416175.5,286047000.8,N
1522416195.3,286047001.1,N
1522416215.2,286046998.8,N
1522416235.0,286046999.5,N
1522416235.9,286046999.5,N
1522416255.8,286046998.3,N
1522416275.6,286046997.0,N
1522416295.4,286046998.2,N
1522416315.3,286046999.0,N
1522416335.1,286046998.7,N
1522416355.9,286046999.2,N
1522416375.7,286046999.2,N
1522416395.5,286046998.6,N
1522416415.4,286047000.3,N
1522416435.2,286046999.8,N
1522416455.0,286046999.8,N
1522416456.0,286046999.8,N
1522416475.8,286046999.7,N
1522416495.6,286047002.1,N
1522416515.5,286047001.9,N
1522416535.3,286047001.8,N
1522416555.1,286047001.9,N
1522416575.9,286047002.3,N
1522416595.7,286047002.1,N
1522416615.6,286047000.1,N
1522416635.4,286047002.3,N
1522416685.3,286047000.5,E
1522416695.2,286047000.8,N
1522416715.0,286046998.1,P
1522416715.9,286046998.1,N
1522416735.8,286046999.6,N
1522416755.6,286046996.9,N
1522416775.4,286047001.0,N
1522416795.3,286046998.1,N
1522416815.1,286047001.2,N
1522416835.9,286046998.9,N
1522416855.7,286047001.2,N
1522416875.5,286047000.1,N
1522416895.4,286047001.0,N
1522416915.2,286047000.9,N
1522416935.1,286046998.3,N
1522416936.0,286046998.3,N
1522416955.8,286047001.9,N
1522416975.6,286047000.3,N
1522416995.5,286047000.6,N
1522417015.3,286046999.7,N
1522417035.2,286047002.4,N
1522417055.9,286046999.8,N
1522417075.7,286047002.8,N
1522417095.6,286047000.4,N
1522417115.4,286047000.7,N
1522417135.2,286047002.8,N
1522417155.1,286047004.0,N
1522417156.0,286047004.0,N
1522417175.8,286047002.0,N
1522417195.7,286046999.9,N
1522417215.5,286047002.8,N
1522417235.3,286046999.9,N
1522417255.2,286047000.4,N
1522417275.0,286047000.0,N
1522417275.9,286047000.0,N
1522417295.7,286047000.5,N
1522417315.6,286047000.5,N
1522417335.4,286047000.3,N
1522417355.3,286047000.6,N
1522417375.1,286047000.9,N
1522417376.0,286047000.9,N
1522417395.8,286047000.9,N
1522417415.7,286047000.9,N
1522417435.5,286047001.2,N
1522417455.4,286047001.2,N
1522417475.2,286047002.6,N
1522417495.0,286047002.2,N
1522417495.9,286047002.2,N
1522417515.8,286047002.9,N
1522417535.6,286047002.9,N
1522417555.4,286047004.0,Y
1522417575.3,286046999.9,P
1522417595.1,286047000.2,N
1522417615.9,286047001.8,N
1522417635.7,286047000.1,N
1522417655.5,286047000.5,N
1522417675.4,286047001.1,N
1522417695.2,286046998.4,N
1522417715.1,286047001.0,N
1522417716.0,286047001.0,N
1522417735.8,286047000.8,N
1522417755.6,286047000.8,N
1522417775.5,286047000.7,N
1522417795.3,286046998.3,N
1522417815.2,286046997.0,Y
1522417835.9,286046999.5,P
1522417855.7,286047000.7,N
1522417875.6,286046996.9,P
1522417895.4,286046998.8,N
1522417915.3,286046998.9,N
1522417935.1,286046998.4,N
1522417936.0,286046998.4,N
1522417955.8,286046998.2,N
1522417975.7,286046999.3,N
1522417995.5,286046998.7,N
1522418015.3,286046998.2,N
1522418035.2,286047000.3,N
1522418055.0,286047002.8,N
1522418055.9,286047002.8,N
1522418075.8,286047005.8,Y
1522418095.6,286047005.5,P
1522418115.4,286047003.8,N
1522418135.3,286047001.9,N
1522418155.1,286047002.3,N
1522418175.9,286047002.0,N
1522418195.7,286047000.2,N
1522418215.5,286047000.1,N
1522418235.4,286047000.0,N
1522418255.2,286047002.5,N
1522418275.1,286047001.6,N
1522418276.0,286047001.6,N
1522418295.8,286047002.2,N
1522418315.6,286047002.8,N
1522418335.5,286047003.8,N
1522418355.3,286047003.6,N
1522418375.1,286047001.3,N
1522418395.9,286047001.6,N
